This is the latest recevied weather packets stored in our database for station/object W8RD. If no packets are shown the sender has not sent any weather packets the latest 10 day(s).
| Time | Temp. | Humidity | Pressure | Rain* | Wind** | Luminosity | Snow |
|---|---|---|---|---|---|---|---|
| 1777601307 | 25° C | 85% | 1013 hPa | 0 mm | - | 0 W/m² | - |
| 1777600706 | 25° C | 85% | 1013.1 hPa | 0 mm | - | 0 W/m² | - |
| 1777600104 | 25° C | 85% | 1012.9 hPa | 0 mm | - | 0 W/m² | - |
| 1777599501 | 25° C | 85% | 1013.2 hPa | 0 mm | - | 0 W/m² | - |
| 1777598901 | 24.44° C | 85% | 1013.2 hPa | 0 mm | - | 0 W/m² | - |
| 1777598300 | 24.44° C | 85% | 1013 hPa | 0 mm | - | 0 W/m² | - |
| 1777597697 | 24.44° C | 85% | 1013.1 hPa | 0 mm | - | 0 W/m² | - |
| 1777597094 | 25° C | 85% | 1012.9 hPa | 0 mm | - | 0 W/m² | - |
| 1777596493 | 25° C | 84% | 1012.9 hPa | 0 mm | - | 0 W/m² | - |
| 1777595887 | 25° C | 84% | 1012.8 hPa | 0 mm | - | 0 W/m² | - |
| 1777595283 | 25° C | 84% | 1013.1 hPa | 0 mm | - | 0 W/m² | - |
| 1777594682 | 25° C | 83% | 1013 hPa | 0 mm | - | 0 W/m² | - |
| 1777594079 | 25° C | 82% | 1012.9 hPa | 0 mm | - | 1 W/m² | - |
| 1777593478 | 25.56° C | 82% | 1012.7 hPa | 0 mm | - | 3 W/m² | - |
| 1777592875 | 25.56° C | 81% | 1012.8 hPa | 0 mm | - | 6 W/m² | - |
| 1777592274 | 25.56° C | 81% | 1012.5 hPa | 0 mm | - | 11 W/m² | - |
| 1777591672 | 25.56° C | 80% | 1012.4 hPa | 0 mm | - | 19 W/m² | - |
| 1777591070 | 26.11° C | 79% | 1012.3 hPa | 0 mm | - | 24 W/m² | - |
| 1777590468 | 26.11° C | 78% | 1012.3 hPa | 0 mm | - | 38 W/m² | - |
| 1777589867 | 26.67° C | 77% | 1012.3 hPa | 0 mm | - | 44 W/m² | - |
| 1777589267 | 26.67° C | 75% | 1012 hPa | 0 mm | - | 42 W/m² | - |
| 1777588666 | 27.22° C | 73% | 1012.1 hPa | 0 mm | - | 51 W/m² | - |
| 1777588064 | 27.22° C | 73% | 1012.2 hPa | 0 mm | - | 94 W/m² | - |
| 1777587458 | 27.22° C | 74% | 1012.1 hPa | 0 mm | - | 120 W/m² | - |
| 1777586857 | 27.22° C | 72% | 1012.2 hPa | 0 mm | - | 137 W/m² | - |
* Rain latest hour (hover to see other rain measurements)
** Current wind speed in m/s (hover to see current wind gust speed)